Retour au catalogue

ONEWEB-0585

ActifCommunicationsPO
NORAD 54652·PAYLOAD·🇬🇧 United Kingdom

Lancé Dec 8, 2022 depuis Cape Canaveral Space Force Station

Loading…

Prochains Passages (prochaines 24 heures)

TLE

FraisSource: CelesTrak SupGP

Époque: Sep 14, 2026, 19:52 UTC

1 54652C 22166L   26257.82796713  .00002252  00000+0  54596-2 0  2572
2 54652  87.9283 226.1276 0002012  78.8966   0.6318 13.21827468    17

Suivez ONEWEB-0585 en temps réel avec AllMySat

Download on the App Store